Wind_Speed
69 67 67 67 66 63 58 58 59 59 56 56 56 57 56 56 55 54 53 51 51 50 47 47 45 47 46 46 46 46 45 44 42 40 36 35 35 34 34 33 34 34 37
70 70 69 70 69 68 69 68 62 64 65 59 42 61 64 65 65 65 66 63 59 54 50 53 48 49 49 49 49 47 48 47 45 41 40 39 39 38 37 38 38 38 39
71 73 74 74 74 72 70 70 69 66 64 62 60 59 57 68 65 66 67 66 65 62 60 56 56 52 52 51 51 51 50 49 47 44 46 45 44 40 41 43 41 40 41
73 75 76 77 77 78 77 75 73 71 69 64 66 70 73 70 63 64 68 65 65 61 58 58 61 57 55 54 53 54 54 52 51 50 47 47 46 45 45 42 44 45 46
73 75 78 79 81 82 82 82 81 78 77 73 71 72 73 72 73 74 71 71 68 66 61 60 62 61 57 59 58 58 58 56 56 53 51 48 47 48 48 48 51 50 50
67 76 80 81 83 86 87 88 87 85 85 83 82 78 77 77 76 77 79 76 75 77 72 69 67 67 65 60 62 62 62 61 61 58 58 59 57 57 54 54 52 52 53
71 73 77 81 85 87 89 92 92 91 91 90 90 87 83 81 80 76 76 77 80 81 80 78 74 69 70 68 67 69 68 65 64 64 64 63 64 64 63 60 58 56 58
78 79 81 84 86 86 87 90 93 94 95 96 94 93 89 87 85 84 83 77 81 84 82 82 80 77 77 75 75 75 75 75 72 71 71 69 71 70 68 67 69 69 64
75 78 80 82 86 88 88 89 91 92 94 96 97 97 96 93 94 90 88 87 89 85 82 84 84 83 83 81 81 82 81 77 80 80 78 77 74 75 71 71 68 68 68
75 75 76 79 82 86 87 88 92 93 93 94 97 98 97 98 100 100 99 99 97 100 94 91 88 86 83 79 83 86 87 86 85 86 83 80 78 77 75 74 72 72 72
74 75 76 77 78 81 84 86 89 91 92 95 97 97 97 99 100 103 105 103 103 101 101 96 94 86 88 88 88 87 88 88 89 89 85 83 82 83 83 82 80 79 79
74 74 75 75 75 78 79 82 84 87 90 93 95 97 99 98 98 101 104 109 105 105 104 104 100 97 97 97 96 91 92 92 90 91 90 89 87 86 82 84 84 84 84
72 74 72 73 74 76 77 79 79 82 86 88 91 93 96 98 102 101 102 106 109 111 107 110 107 103 105 102 100 97 99 98 97 97 92 90 89 89 89 90 91 89 87
67 67 67 67 67 70 72 74 76 78 81 84 89 92 94 96 98 102 103 104 108 113 113 112 113 115 114 112 108 102 100 101 98 94 92 91 91 93 94 89 88 90 92
62 64 64 64 65 66 68 71 73 76 79 82 84 87 91 95 97 98 100 104 107 108 111 114 117 117 116 117 118 108 108 107 103 102 98 98 94 94 95 95 93 92 90
60 63 63 63 63 65 67 69 72 76 77 80 83 84 87 90 93 96 98 101 105 107 110 111 113 117 119 120 119 121 117 108 105 103 102 102 101 101 105 102 100 101 99
60 61 62 63 64 65 67 69 72 74 77 79 82 84 87 88 89 92 94 98 103 105 107 110 113 116 114 119 121 121 126 126 121 114 113 112 112 114 110 109 110 113 112
60 61 63 66 68 68 69 69 72 75 76 77 80 82 85 86 86 88 90 92 97 102 104 106 110 115 116 116 116 118 123 126 129 130 129 125 123 121 120 117 115 116 114
60 60 62 64 66 66 66 66 68 71 74 74 75 76 78 78 80 83 88 91 93 96 101 103 106 110 113 116 118 117 117 119 122 124 125 126 127 127 124 121 117 114 112
55 57 56 57 57 58 59 60 62 65 66 68 68 69 69 69 70 72 77 83 88 91 93 99 103 105 109 112 113 117 118 116 117 118 120 121 121 121 121 121 120 119 120
46 47 48 48 48 48 49 50 54 56 58 60 59 60 60 59 62 64 72 76 81 84 89 94 98 102 104 106 107 109 114 118 119 118 118 120 122 121 121 121 122 122 123
35 35 36 37 39 41 41 46 46 46 52 52 51 52 53 54 54 60 65 67 72 76 83 88 92 96 96 100 103 106 108 111 116 117 119 120 119 120 120 121 122 123 125
29 28 29 30 31 33 33 35 36 39 39 39 41 43 45 47 47 51 57 61 65 69 76 80 84 89 91 93 96 99 101 104 106 109 114 119 121 123 124 125 125 126 125
29 26 24 24 25 27 25 27 27 26 28 32 33 35 34 37 39 43 47 51 54 58 65 71 74 78 82 84 87 90 93 94 97 99 101 105 108 110 114 118 121 123 124
30 25 21 18 16 15 14 11 11 14 19 23 24 26 26 28 32 35 38 43 48 53 57 59 63 67 72 76 79 81 83 85 88 90 91 93 95 98 100 102 105 107 108
37 25 19 16 14 10 6 5 6 6 6 10 12 15 17 22 24 27 30 34 37 41 44 48 54 60 64 68 69 71 72 73 74 77 79 81 82 83 86 87 89 91 93
Wind_Direction
243 243 243 242 241 242 242 244 241 241 241 242 242 244 250 250 253 251 248 250 253 252 252 253 255 257 259 261 259 258 258 257 257 257 255 260 264 267 271 271 273 281 282
245 243 243 243 244 242 241 242 244 248 246 244 257 256 248 248 249 251 254 255 254 251 250 255 253 256 257 259 257 255 255 257 256 254 259 263 265 268 272 270 272 275 280
249 248 246 245 245 245 244 243 242 241 246 244 233 242 248 247 250 253 254 255 255 254 252 251 253 253 254 256 254 252 251 251 251 253 256 261 268 267 269 270 272 276 279
252 251 250 250 248 246 246 244 242 241 239 241 242 241 240 245 242 253 252 253 255 256 256 256 252 251 252 252 252 251 251 251 251 253 258 260 264 265 267 268 274 276 278
255 256 254 252 249 248 247 246 244 242 243 240 240 243 245 245 241 242 244 248 250 250 247 249 252 251 250 250 251 251 251 252 253 253 256 258 264 260 264 268 271 273 277
258 257 257 256 253 250 249 249 246 244 243 242 242 243 245 246 246 248 247 246 248 250 244 244 246 249 247 249 250 251 253 254 253 251 255 256 257 256 257 259 264 272 275
260 258 258 257 255 252 251 250 248 248 246 244 242 242 242 243 242 242 244 245 246 249 249 253 252 244 249 247 248 250 252 253 253 253 254 256 258 258 260 263 263 265 273
264 261 260 259 257 256 254 253 251 250 249 248 245 243 242 241 242 239 238 241 246 247 249 252 251 248 247 251 250 249 248 249 248 251 254 257 259 262 262 264 268 268 273
264 264 262 260 259 258 256 255 254 252 251 250 249 247 245 242 240 238 237 240 244 244 246 252 252 250 248 250 253 256 256 254 256 254 252 253 256 259 263 267 268 269 272
270 267 264 262 260 259 257 256 255 254 253 252 250 249 247 244 242 241 241 242 244 247 246 249 247 248 247 248 252 254 257 257 255 257 258 261 261 260 263 265 267 270 272
273 271 267 264 261 259 257 256 254 254 252 252 251 250 248 246 244 243 241 242 244 244 246 244 244 247 249 250 250 252 253 254 255 256 258 257 259 261 263 265 265 268 271
274 269 266 265 264 261 259 257 255 253 252 251 251 250 250 249 246 244 243 242 242 243 243 244 244 243 247 249 248 250 253 255 258 260 261 261 260 261 267 269 268 272 273
273 273 271 268 265 262 260 258 257 255 254 252 251 250 249 249 248 246 243 243 242 242 241 242 242 242 245 247 249 250 251 253 256 258 260 261 262 263 264 265 266 269 272
275 272 270 266 262 261 260 259 258 256 255 252 250 248 248 248 247 247 246 243 243 243 243 242 243 244 245 246 248 249 249 252 252 254 257 260 261 263 266 266 269 272 274
276 273 271 267 264 260 257 256 256 255 254 254 253 251 248 248 248 246 246 245 244 243 243 243 243 245 245 246 247 247 249 250 249 254 256 256 259 260 262 264 268 267 268
279 277 272 268 265 261 258 256 255 255 254 254 254 253 251 250 248 247 246 245 245 244 243 243 244 244 245 246 247 246 245 246 249 252 253 255 256 259 260 263 264 266 269
282 278 275 271 267 263 260 259 257 255 255 254 252 251 251 250 250 248 247 245 245 245 244 244 244 245 245 246 247 248 248 248 248 249 251 252 255 258 259 260 263 266 268
283 278 274 271 268 265 263 260 259 259 257 256 255 253 251 250 248 248 247 245 245 246 245 245 245 245 246 246 248 249 249 250 251 253 253 254 255 259 262 263 266 269 270
281 277 273 270 268 266 265 262 260 259 258 257 257 257 256 254 251 248 247 246 244 243 245 245 245 246 247 247 248 249 251 252 253 254 256 257 258 259 261 262 263 264 266
282 276 274 273 270 266 264 263 263 261 259 259 259 258 257 254 252 250 248 246 245 244 243 244 245 246 247 248 249 250 251 253 254 255 257 258 259 261 262 263 265 266 266
286 280 274 271 268 267 266 264 261 260 259 259 258 257 256 253 251 248 245 244 243 243 242 243 244 245 247 249 250 251 252 253 254 256 257 258 259 262 263 265 266 267 269
294 287 284 279 274 270 267 263 262 259 256 257 255 253 251 249 246 245 246 244 244 243 243 244 244 247 248 250 251 252 254 255 255 257 258 260 262 263 265 266 267 268 269
306 298 290 284 279 274 268 264 260 259 261 259 257 254 253 251 247 243 245 245 244 244 244 245 246 247 249 251 253 255 256 257 258 260 260 261 262 263 264 266 267 268 269
325 310 302 294 282 275 265 262 262 261 257 256 255 253 251 247 246 245 243 245 247 247 247 247 247 249 250 253 255 256 258 260 262 264 265 266 266 267 267 268 269 270 271
342 328 316 306 297 271 257 244 253 243 251 254 253 252 246 246 248 248 249 247 250 253 253 254 254 253 253 255 258 261 262 264 265 266 266 267 268 269 269 270 271 271 272
360 348 337 336 327 312 285 244 224 230 242 259 260 254 251 251 249 251 257 261 263 263 263 261 258 257 257 259 262 264 267 269 270 270 270 270 271 272 272 272 272 272 273
Height
10685 10689 10693 10698 10702 10707 10710 10713 10716 10720 10725 10729 10733 10737 10737 10737 10736 10737 10740 10744 10745 10747 10749 10750 10752 10754 10755 10756 10757 10759 10760 10760 10760 10761 10761 10762 10762 10763 10762 10762 10762 10762 10762
10672 10676 10679 10683 10688 10692 10696 10700 10703 10708 10713 10718 10729 10725 10726 10724 10724 10725 10726 10731 10735 10737 10739 10737 10743 10743 10744 10746 10748 10748 10750 10751 10752 10753 10754 10754 10754 10754 10754 10754 10754 10753 10753
10658 10661 10665 10669 10672 10676 10680 10685 10690 10695 10698 10701 10706 10703 10708 10712 10714 10714 10715 10717 10722 10724 10727 10727 10729 10732 10733 10735 10737 10738 10739 10741 10742 10743 10744 10745 10746 10745 10745 10744 10744 10744 10744
10641 10644 10648 10652 10656 10660 10663 10668 10673 10679 10684 10686 10689 10690 10693 10696 10701 10701 10703 10704 10707 10713 10714 10716 10715 10718 10720 10722 10725 10727 10728 10730 10731 10732 10733 10734 10735 10735 10734 10734 10735 10734 10733
10627 10628 10630 10634 10638 10640 10643 10648 10654 10662 10666 10671 10673 10675 10678 10682 10684 10684 10687 10687 10691 10695 10700 10701 10702 10704 10707 10709 10711 10714 10716 10718 10720 10721 10721 10723 10723 10723 10724 10724 10723 10723 10723
10612 10612 10612 10613 10617 10621 10624 10628 10633 10641 10646 10650 10653 10658 10662 10666 10668 10669 10672 10673 10675 10677 10681 10684 10688 10690 10691 10695 10698 10700 10702 10706 10707 10707 10709 10710 10710 10711 10710 10711 10710 10711 10711
10595 10595 10593 10593 10595 10599 10603 10607 10612 10618 10623 10625 10631 10639 10642 10646 10651 10654 10654 10656 10657 10660 10664 10668 10674 10676 10677 10679 10681 10685 10689 10690 10692 10694 10695 10696 10697 10697 10698 10699 10699 10698 10698
10572 10574 10574 10574 10574 10576 10581 10584 10589 10595 10600 10602 10609 10613 10624 10629 10634 10635 10636 10639 10640 10642 10647 10650 10656 10662 10663 10664 10665 10666 10670 10674 10675 10678 10680 10682 10683 10684 10685 10685 10685 10685 10685
10551 10551 10551 10551 10551 10552 10557 10561 10563 10570 10575 10579 10584 10591 10600 10608 10608 10613 10619 10621 10622 10625 10627 10631 10637 10642 10647 10650 10650 10651 10653 10658 10660 10661 10663 10663 10665 10667 10669 10670 10670 10670 10671
10531 10530 10529 10529 10529 10529 10531 10535 10538 10544 10550 10553 10557 10565 10573 10581 10585 10591 10598 10602 10604 10603 10609 10614 10620 10625 10629 10630 10634 10634 10635 10639 10642 10642 10648 10652 10651 10652 10652 10654 10656 10656 10656
10508 10505 10504 10504 10505 10505 10506 10508 10511 10516 10523 10527 10530 10536 10545 10553 10561 10567 10571 10575 10577 10583 10588 10595 10598 10605 10608 10612 10613 10615 10615 10620 10621 10624 10631 10634 10635 10635 10636 10640 10641 10640 10641
10481 10481 10480 10481 10481 10480 10482 10483 10486 10489 10494 10501 10505 10512 10517 10525 10533 10539 10544 10549 10557 10561 10568 10571 10577 10584 10587 10590 10594 10597 10597 10600 10602 10606 10611 10614 10618 10619 10620 10621 10622 10624 10624
10460 10458 10461 10460 10459 10458 10459 10461 10464 10467 10468 10475 10480 10486 10490 10497 10502 10510 10519 10525 10531 10535 10545 10549 10554 10562 10564 10568 10570 10573 10577 10582 10583 10585 10590 10594 10597 10599 10602 10603 10605 10605 10605
10443 10441 10440 10439 10438 10438 10438 10440 10441 10444 10445 10448 10452 10457 10463 10469 10476 10481 10491 10498 10504 10509 10520 10529 10532 10535 10541 10545 10545 10553 10557 10558 10560 10564 10570 10575 10576 10578 10580 10582 10584 10583 10583
10427 10422 10421 10420 10418 10419 10418 10418 10420 10421 10423 10424 10428 10433 10438 10441 10449 10455 10463 10470 10477 10486 10492 10501 10505 10512 10518 10521 10525 10533 10531 10535 10541 10546 10552 10555 10556 10558 10560 10562 10562 10563 10563
10410 10405 10402 10401 10399 10397 10397 10398 10398 10397 10401 10403 10404 10409 10414 10417 10424 10429 10437 10444 10449 10458 10465 10473 10480 10485 10489 10492 10501 10508 10505 10514 10521 10526 10531 10533 10537 10538 10537 10540 10541 10542 10542
10392 10387 10383 10380 10377 10376 10376 10376 10376 10376 10377 10378 10381 10384 10387 10394 10399 10406 10413 10419 10424 10431 10441 10448 10455 10455 10468 10467 10474 10483 10488 10493 10498 10504 10507 10510 10514 10514 10518 10518 10518 10518 10519
10373 10369 10364 10359 10355 10354 10354 10355 10353 10353 10355 10356 10356 10360 10364 10369 10376 10381 10388 10394 10399 10407 10416 10424 10429 10434 10442 10446 10452 10457 10459 10468 10475 10480 10484 10486 10491 10492 10493 10495 10494 10493 10494
10355 10349 10342 10337 10334 10332 10333 10333 10333 10332 10331 10332 10334 10338 10342 10347 10354 10359 10364 10369 10376 10382 10389 10399 10405 10411 10416 10424 10429 10434 10439 10446 10451 10454 10458 10462 10465 10467 10469 10471 10472 10473 10471
10335 10328 10322 10317 10313 10312 10312 10312 10312 10311 10311 10313 10316 10319 10322 10327 10332 10337 10342 10347 10355 10362 10370 10375 10381 10389 10392 10398 10407 10413 10419 10423 10427 10431 10434 10437 10438 10441 10443 10445 10448 10446 10445
10318 10310 10304 10300 10298 10296 10295 10295 10294 10293 10294 10296 10299 10302 10305 10307 10312 10315 10318 10325 10330 10341 10347 10352 10360 10365 10372 10378 10386 10393 10397 10401 10403 10406 10409 10409 10413 10418 10419 10420 10420 10420 10419
10303 10296 10291 10286 10284 10281 10281 10278 10280 10280 10278 10281 10284 10285 10286 10290 10295 10297 10302 10309 10315 10322 10327 10335 10341 10347 10357 10360 10366 10371 10374 10377 10380 10387 10388 10389 10391 10392 10393 10393 10391 10390 10388
10291 10286 10280 10276 10272 10270 10268 10266 10267 10268 10269 10270 10271 10273 10276 10279 10284 10287 10289 10293 10301 10307 10312 10319 10325 10330 10337 10343 10347 10352 10354 10358 10361 10361 10362 10363 10364 10365 10365 10363 10361 10360 10360
10285 10279 10274 10269 10265 10261 10260 10259 10261 10262 10261 10261 10263 10264 10269 10271 10274 10277 10281 10285 10291 10295 10299 10305 10311 10316 10321 10325 10329 10331 10333 10336 10338 10339 10340 10341 10340 10340 10338 10335 10332 10331 10331
10281 10275 10270 10265 10261 10257 10256 10256 10257 10257 10256 10256 10257 10259 10263 10265 10268 10271 10275 10279 10282 10286 10291 10296 10300 10302 10305 10307 10311 10314 10316 10317 10317 10317 10317 10316 10315 10314 10312 10309 10304 10301 10299
10282 10275 10269 10263 10259 10257 10253 10253 10252 10252 10253 10254 10254 10256 10259 10261 10264 10269 10272 10276 10279 10281 10282 10283 10284 10288 10291 10294 10296 10297 10297 10297 10297 10294 10293 10290 10289 10288 10286 10284 10279 10275 10270